Location: Archemont
(49.1579°N, 1.7598°E)
Time: 09:44:52
(UTC+00:00)

Altair - Pass Details

Date: 21 April 2024
Orbit: 1501 x 1682 km, 47.2° (Epoch: 17 May)

Event Time Altitude Azimuth Distance (km) Brightness Sun altitude
Rises 23:12:09 0° 284° (WNW) 4,865 10.4 -27.9°
Reaches altitude 10° 23:15:22 10° 281° (W) 3,855 9.8 -28.0°
Maximum altitude 23:24:57 62° 204° (SSW) 1,741 7.4 -28.3°
Enters shadow 23:27:01 52° 158° (SSE) 1,886 7.5 -28.3°
Drops below altitude 10° 23:34:08 10° 127° (SE) 3,707 - -28.4°
Sets 23:37:10 0° 124° (SE) 4,669 - -28.5°
